Weather in Kriusha

Russia / Kaluga Oblast     54°27′51″N   36°23′23″E
temp.,
°C
wind,
m/s
gust,
m/s
humid.,
%
clouds,
%
prec.,
mm/h
press.,
hPa
HPBL,
m
12 may, wed
wed1200:00+10se26955 0.0 1025129
03:00+7sse23940 0.0 102664
06:00+7se11890 0.0 102630
09:00+12e357131 0.0 1026614
12:00+9ne2490100 1.0 1024273
15:00+9w2496100 2.4 1020172
18:00+8sw2497100 3.4 1018211
21:00+7se359814 3.9 1019121
13 may, thu
thu1300:00+5ese37978 0.0 1019144
03:00+5e411978 0.0 1019233
06:00+7ese51593100 0.1 1018475
09:00+12ese6984100 0.1 1018640
12:00+14se5779100 0.3 10171047
15:00+9sw5995100 2.2 1016649
18:00+10sse2595100 11.9 1015290
21:00+7se359789 11.9 101687
14 may, fri
fri1400:00+7s35965 0.0 101679
03:00+6sse23950 0.0 101741
06:00+8se259577 0.0 1017122
09:00+13se4680100 0.0 1017396
12:00+18ese466918 0.0 1016869
15:00+20se5872100 0.6 10131015
18:00+18se3983100 5.1 1011260
21:00+14se3694100 8.9 1011102
15 may, sat
sat1500:00+14sse379399 1.8 1010132
03:00+14se41094100 1.9 1010215
06:00+13se412911 0.3 1010322
09:00+18s4883100 0.3 1009560
12:00+20sse677856 1.6 1009974
15:00+21ssw69660 2.9 10081306
18:00+19ssw610725 0.4 1008999
21:00+14ssw411914 0.4 1010330
16 may, sun
sun1600:00+12sw410979 0.0 1011334
03:00+10sw379822 0.0 1012181
06:00+10ssw37953 0.0 1014216
09:00+15wsw46751 0.0 1014677
12:00+18wsw346041 0.0 10151429
15:00+20w225755 0.1 10151354
18:00+19nnw116497 0.0 1015659
21:00+14ne228182 0.0 101618